カタログに戻る

JCSAT 2A

運用中通信GEO
NORAD 27399·PAYLOAD·🇯🇵 Japan

打ち上げ Mar 29, 2002 から Guiana Space Centre

Loading…

TLE

最新Source: Space-Track

元期: Sep 14, 2026, 10:30 UTC

1 27399U 02015A   26257.43807655  .00000002  00000-0  00000-0 0  9990
2 27399   8.5203  63.1748 0007552 105.6830 243.7768  0.99025543 89530

AllMySatでJCSAT 2Aをリアルタイム追跡

Download on the App Store